Date,TemperatureHighF,TemperatureAvgF,TemperatureLowF,DewpointHighF,DewpointAvgF,DewpointLowF,HumidityHigh,HumidityAvg,HumidityLow,PressureMaxIn,PressureMinIn,WindSpeedMaxMPH,WindSpeedAvgMPH,GustSpeedMaxMPH,PrecipitationSumIn
2013-1-9,52.7,51.7,50.5,52.4,51.3,49.8,99,98,97,29.29,29.23,7,0,7,0.00
2013-1-10,63.4,45.4,0.0,60.4,44.5,0.0,100,74,90,29.28,28.91,13,1,18,0.00
2013-1-11,68.4,52.2,0.0,62.9,49.2,0.0,96,72,72,28.98,28.88,13,1,15,0.00
2013-1-12,67.0,54.8,0.0,66.9,53.4,0.0,100,80,86,28.96,28.77,10,0,11,0.00
2013-1-13,68.2,45.1,0.0,65.0,43.2,0.0,99,78,83,29.10,28.75,15,2,17,0.00
2013-1-14,34.3,23.5,0.0,33.0,21.9,0.0,96,74,86,29.23,29.07,14,2,18,0.00
2013-1-15,32.2,25.9,0.0,31.7,25.2,0.0,98,81,96,29.10,28.88,12,1,12,0.00
2013-1-16,32.7,25.5,0.0,32.5,25.2,0.0,100,78,98,29.02,28.87,0,0,0,0.00
2013-1-17,40.8,27.5,0.0,36.5,25.3,0.0,100,69,81,29.30,28.93,13,2,18,0.03
2013-1-18,49.1,33.9,0.0,35.4,26.2,0.0,92,65,51,29.44,29.25,6,1,7,0.09
2013-1-19,55.9,40.1,0.0,37.1,29.5,0.0,83,62,43,29.26,29.05,255,1,255,0.00
2013-1-20,52.1,40.1,0.0,36.4,27.9,0.0,79,55,45,29.15,29.05,9,1,10,0.00
2013-1-21,38.1,28.7,0.0,22.4,16.0,0.0,73,52,42,29.18,29.04,12,2,13,0.03
2013-1-22,29.6,23.4,0.0,13.7,9.7,0.0,68,49,44,29.29,29.15,5,0,6,0.12
2013-1-23,52.1,36.3,0.0,36.0,23.4,0.0,76,50,48,29.23,29.04,11,1,11,0.04
2013-1-24,42.4,29.3,0.0,35.3,16.3,0.0,83,53,41,29.33,29.09,11,2,12,0.01
2013-1-25,36.3,26.7,0.0,35.5,23.9,0.0,100,71,46,29.15,28.90,6,0,7,0.07
2013-1-26,45.4,32.5,0.0,36.3,27.3,0.0,98,71,59,29.22,29.12,5,0,5,0.03
2013-1-27,48.4,37.3,0.0,43.4,33.1,0.0,93,74,73,29.23,29.12,6,0,7,0.03
2013-1-28,59.1,47.0,0.0,53.4,42.6,0.0,92,74,77,29.15,29.04,12,1,12,0.01
2013-1-29,67.5,51.7,0.0,63.1,49.6,0.0,97,78,86,29.06,28.55,15,0,19,0.00
2013-1-30,69.4,42.0,0.0,63.3,37.8,0.0,98,69,69,28.82,28.41,25,4,25,0.00
2013-1-31,45.0,33.0,0.0,34.9,23.5,0.0,95,58,49,29.09,28.81,17,3,18,0.00
2013-2-1,29.6,21.2,0.0,28.3,15.9,0.0,95,71,64,29.35,29.09,13,1,15,0.08
2013-2-2,44.6,30.0,0.0,33.7,23.5,0.0,93,65,59,29.20,28.96,11,1,11,0.16
2013-2-3,46.9,35.6,0.0,33.7,27.5,0.0,89,66,53,29.05,28.91,16,2,18,0.00
2013-2-4,55.5,39.4,0.0,36.0,28.2,0.0,88,59,38,29.02,28.82,12,1,13,0.67
2013-2-5,61.5,47.3,0.0,45.6,35.1,0.0,91,56,42,28.96,28.82,8,1,10,0.02
2013-2-6,57.6,44.7,0.0,39.7,32.4,0.0,86,56,46,29.12,28.96,6,1,6,0.00
2013-2-7,63.1,48.9,0.0,49.2,38.8,0.0,92,61,47,29.01,28.82,6,0,11,0.00
2013-2-8,49.4,35.9,0.0,47.0,32.3,0.0,96,74,75,29.20,28.79,15,2,15,0.00
2013-2-9,53.9,40.1,0.0,33.5,28.3,0.0,85,58,41,29.23,29.03,9,1,11,0.00
2013-2-10,56.9,47.1,0.0,55.3,41.1,0.0,100,74,53,29.04,28.77,14,1,17,0.00
2013-2-11,56.2,44.7,0.0,55.6,33.4,0.0,98,57,42,29.07,28.84,10,1,10,0.06
2013-2-12,50.2,40.8,0.0,40.3,30.6,0.0,87,59,52,29.06,28.69,7,0,9,0.00
2013-2-13,43.9,32.9,0.0,40.5,30.9,0.0,97,77,85,28.91,28.61,10,1,10,0.01
2013-2-14,58.4,42.6,0.0,42.9,32.0,0.0,97,62,39,28.94,28.87,12,2,13,0.00
2013-2-15,48.3,39.7,0.0,37.9,29.9,0.0,82,63,49,29.05,28.92,11,2,11,0.00
2013-2-16,35.9,28.0,0.0,22.5,15.5,0.0,80,55,42,29.09,28.99,14,2,15,0.25
2013-2-17,45.7,32.9,0.0,23.1,17.2,0.0,71,48,37,29.16,29.05,9,1,9,0.16
2013-2-18,62.4,44.8,0.0,43.5,31.0,0.0,94,55,40,29.08,28.74,15,2,17,0.21
2013-2-19,46.6,38.7,0.0,45.4,27.5,0.0,97,60,36,29.11,28.77,18,3,19,0.22
2013-2-20,34.8,27.2,0.0,21.1,16.7,0.0,72,60,51,29.21,29.08,7,1,8,0.00
2013-2-21,46.0,33.7,0.0,44.1,26.1,0.0,97,69,45,29.11,28.75,14,1,14,0.48
2013-2-22,48.7,37.9,0.0,47.9,37.3,0.0,98,77,97,28.87,28.76,9,1,11,0.06
2013-4-9,77.9,68.5,61.7,65.1,60.1,55.3,83,75,60,29.05,28.91,9,0,11,0.00
2013-4-10,86.7,73.9,63.2,64.4,60.4,57.9,84,65,45,28.96,28.73,8,0,10,0.00
2013-4-11,71.9,64.0,48.3,63.8,58.8,47.5,98,84,63,28.74,28.48,12,1,15,1.32
2013-4-12,48.3,44.8,41.5,47.4,43.0,39.6,97,93,91,28.76,28.62,12,2,14,0.08
2013-6-6,80.7,72.9,68.5,72.2,68.7,65.2,97,87,71,28.77,28.69,4,0,4,0.00
2013-6-7,77.0,67.8,63.5,69.7,65.8,62.3,98,94,74,28.81,28.68,6,0,11,0.01
2013-6-8,78.4,69.3,60.4,68.3,62.6,58.3,99,81,57,28.95,28.79,3,0,4,0.46
2013-6-9,80.9,71.9,66.5,74.4,67.2,59.2,99,85,72,28.97,28.81,4,0,5,0.54
2013-6-10,83.7,72.1,66.4,74.4,68.8,63.2,99,90,64,28.90,28.78,16,0,17,0.79
2013-6-11,88.5,78.4,69.0,77.4,72.7,67.9,98,84,61,28.97,28.88,3,0,3,0.04
2013-6-12,90.5,81.7,74.7,79.1,74.4,72.2,93,80,59,29.00,28.86,6,0,7,0.00
2013-6-13,85.5,78.0,68.9,77.3,71.2,63.2,88,80,62,28.88,28.77,9,1,13,0.00
2013-6-14,81.2,71.4,60.7,64.9,60.3,57.1,89,69,51,28.96,28.85,6,0,7,0.00
2013-6-15,89.5,77.7,65.3,69.2,64.0,58.0,83,64,44,29.03,28.94,4,0,4,0.00
2013-6-16,85.8,77.0,70.0,74.4,69.2,65.2,85,77,63,29.01,28.91,3,0,5,0.00
2013-6-17,84.5,73.5,69.1,77.5,70.6,67.4,98,91,75,28.94,28.82,3,0,4,0.35
2013-6-18,81.0,71.3,66.6,70.0,67.8,65.4,100,90,63,28.90,28.76,4,0,6,0.61
2013-6-19,86.7,76.6,67.2,72.7,68.3,65.5,96,77,53,29.00,28.87,3,0,3,0.00
2013-6-20,75.5,75.1,74.5,66.3,65.8,65.4,75,73,72,29.00,28.99,4,0,4,0.00
2013-7-11,89.6,79.9,70.4,78.4,72.8,66.3,90,80,62,28.90,28.84,5,0,6,0.03
2013-7-12,81.8,71.5,63.8,68.5,64.2,59.8,97,79,56,28.95,28.87,5,0,9,0.03
2013-7-13,83.9,72.2,60.6,70.0,64.3,58.3,93,77,54,28.98,28.90,4,0,7,0.00
2013-7-14,85.8,77.0,69.7,74.9,71.1,67.0,96,83,64,29.09,28.96,7,0,7,0.03
2013-7-15,87.8,79.7,72.8,74.0,71.2,68.4,91,76,57,29.19,29.08,9,0,18,0.03
2013-7-16,91.7,82.1,73.5,76.9,72.7,69.0,90,74,56,29.25,29.16,5,0,6,0.00
2013-7-17,92.1,82.0,72.2,78.0,73.9,70.7,96,78,56,29.24,29.10,5,0,5,0.00
2013-7-18,92.0,80.5,74.6,78.4,73.7,71.0,93,81,60,29.12,28.98,6,0,6,0.01
2013-7-19,91.4,81.7,73.4,77.9,73.5,71.4,94,77,56,29.04,28.89,3,0,5,0.00
2013-7-20,91.4,79.7,72.1,77.0,72.5,69.0,94,80,58,28.94,28.81,12,0,13,0.09
2013-7-21,84.5,76.0,70.6,77.6,71.9,68.3,97,87,67,28.93,28.86,5,0,7,0.02
2013-7-22,73.7,71.6,69.2,71.9,70.1,68.3,99,95,90,28.89,28.82,7,0,7,0.43
2013-7-23,85.0,75.3,69.6,77.0,72.0,68.7,99,90,72,28.87,28.76,5,0,6,0.22
2013-7-24,85.5,75.2,68.6,75.4,70.3,63.9,97,85,68,28.88,28.76,3,0,4,0.00
2013-7-25,81.2,71.2,61.8,69.0,64.9,60.6,97,81,60,28.98,28.86,3,0,4,0.00
2013-7-26,83.0,73.2,63.2,70.4,65.7,61.1,94,79,56,28.99,28.89,3,0,3,0.00
2013-7-27,81.5,74.0,65.7,71.9,67.4,64.5,97,81,61,28.92,28.82,4,0,5,0.00
2013-7-28,75.4,68.2,60.7,64.8,60.0,54.1,90,76,52,29.01,28.88,7,0,10,0.00
2013-7-29,80.2,69.6,59.9,65.0,60.0,56.3,93,73,49,29.11,28.99,4,0,6,0.00
2013-7-30,70.0,68.5,67.0,61.2,60.0,58.6,81,74,69,29.11,29.07,3,0,3,0.00
2013-8-27,82.6,78.5,74.9,72.6,70.3,68.6,83,76,66,29.01,28.98,3,0,3,0.00
2013-8-28,87.2,78.5,71.7,76.1,71.7,68.5,92,80,65,29.02,28.94,3,0,3,0.00
2013-8-29,88.6,80.6,73.8,77.3,73.0,69.1,87,78,64,28.99,28.90,4,0,4,0.00
2013-8-30,89.9,82.0,75.7,78.2,74.3,71.7,88,78,64,28.94,28.84,0,0,0,0.00
2013-8-31,88.7,78.2,72.8,77.4,73.5,70.4,96,86,65,28.89,28.78,0,0,0,0.11
2013-9-1,78.5,73.0,66.7,73.7,70.3,66.0,100,92,76,28.89,28.78,5,0,7,0.06
2013-9-2,80.2,51.4,0.0,76.0,49.9,0.0,97,65,86,28.89,28.78,0,0,0,0.03
2013-9-3,83.0,73.7,67.5,72.0,67.9,63.8,98,83,60,28.97,28.83,0,0,0,0.00
2013-9-4,82.8,71.8,63.2,68.8,64.9,62.2,97,80,57,29.07,28.95,0,0,0,0.00
2013-9-5,83.3,71.9,62.8,69.1,63.7,60.4,95,77,52,29.10,29.03,0,0,0,0.00
2013-9-6,86.3,74.2,63.2,70.2,65.9,62.0,97,77,51,29.09,28.99,0,0,0,0.00
2013-9-7,87.9,77.9,68.1,72.4,67.9,64.9,91,73,52,29.03,28.92,0,0,0,0.00
2013-9-8,87.2,78.8,70.0,73.8,69.9,66.9,91,75,59,28.96,28.88,0,0,0,0.00
2013-9-9,90.2,79.5,69.8,75.9,71.4,67.8,95,77,56,29.01,28.92,0,0,0,0.00
2013-9-10,89.3,76.2,71.1,77.6,71.6,69.7,97,86,62,29.10,29.00,0,0,0,0.01
2013-9-11,85.3,57.4,0.0,75.7,53.4,0.0,97,63,68,29.14,29.02,0,0,0,0.00
2013-9-12,84.0,76.0,71.2,76.1,71.4,68.8,96,86,70,29.02,28.86,0,0,0,0.05
2013-9-13,76.6,68.1,57.7,71.0,60.4,52.2,97,78,52,28.94,28.87,0,0,0,0.00
2013-9-14,73.0,61.3,49.8,56.1,52.1,47.3,95,73,50,29.00,28.92,0,0,0,0.00
2013-9-15,83.4,70.2,58.0,65.3,58.6,52.4,85,68,47,29.04,28.97,0,0,0,0.00
2013-9-16,80.9,70.9,63.8,65.4,61.6,57.3,92,74,50,29.09,29.02,0,0,0,0.00
2013-9-17,85.8,71.0,61.8,70.1,65.0,60.6,97,83,52,29.11,29.00,0,0,0,0.00
2013-9-18,84.8,73.8,66.1,71.1,66.7,61.8,90,79,61,29.10,28.99,0,0,0,0.00
2013-9-19,85.1,75.3,65.7,71.2,67.0,63.3,93,77,53,29.08,28.95,0,0,0,0.00
2013-9-20,90.0,76.1,66.6,72.2,67.7,63.3,97,77,53,28.97,28.74,1,0,1,0.26
2013-9-21,70.8,57.7,0.0,70.0,54.2,0.0,99,79,70,28.79,28.67,4,0,5,0.61
2013-9-22,72.6,45.6,0.0,57.8,40.0,0.0,95,58,54,28.86,28.78,5,0,6,0.09
2013-9-23,79.4,51.9,0.0,62.7,44.7,0.0,94,58,48,28.92,28.84,3,0,4,0.00
2013-9-24,82.3,53.3,0.0,67.7,48.1,0.0,96,61,58,28.91,28.77,6,0,9,0.00
2013-9-25,70.5,61.7,0.0,68.0,60.3,0.0,98,87,88,28.81,28.74,3,0,3,0.01
2013-9-26,76.7,63.9,0.0,68.8,60.2,0.0,100,83,68,28.95,28.80,5,0,5,0.00
2013-9-27,83.8,55.4,0.0,66.3,47.2,0.0,93,56,48,29.04,28.94,4,0,4,0.00
2013-9-28,81.5,66.2,0.0,63.8,55.8,0.0,87,65,47,29.11,28.98,5,0,5,0.00
2013-9-29,75.1,61.4,0.0,62.2,55.1,0.0,92,74,60,29.02,28.92,0,0,1,0.00
2013-9-30,77.5,64.0,0.0,64.6,57.0,0.0,90,72,61,28.97,28.89,2,0,2,0.00
2013-10-1,83.4,59.6,0.0,69.9,54.2,0.0,91,67,62,29.03,28.93,1,0,2,0.00
2013-10-2,81.4,56.7,0.0,71.2,52.3,0.0,94,65,68,29.07,28.98,0,0,0,0.00
2013-10-3,86.6,72.5,0.0,69.9,63.1,0.0,93,70,51,29.04,28.93,0,0,1,0.00
2013-10-4,85.6,71.5,0.0,72.2,64.5,0.0,93,76,62,29.04,28.96,0,0,1,0.00
2013-10-5,89.8,73.5,0.0,73.1,64.9,0.0,92,70,56,29.00,28.84,1,0,2,0.00
2013-10-6,73.2,59.8,0.0,70.3,57.6,0.0,98,85,80,28.87,28.76,1,0,1,0.02
2013-10-7,63.5,49.2,0.0,54.3,44.4,0.0,97,73,67,29.01,28.84,1,0,1,0.00
2013-10-8,69.8,55.4,0.0,54.4,47.8,0.0,95,73,54,29.05,28.99,1,0,1,0.00
2013-10-9,76.3,64.4,0.0,63.0,55.6,0.0,89,69,59,29.09,29.01,0,0,0,0.00
2013-10-10,78.1,64.1,0.0,66.1,57.6,0.0,93,75,61,29.07,28.95,0,0,0,0.00
2013-10-11,78.7,66.0,0.0,63.0,56.1,0.0,87,68,53,29.01,28.92,0,0,0,0.00
2013-10-12,78.1,65.5,0.0,64.5,57.4,0.0,90,71,59,29.04,28.94,0,0,0,0.00
2013-10-13,77.0,64.8,0.0,67.3,59.7,0.0,97,79,62,29.16,29.04,0,0,0,0.00
2013-10-14,77.8,63.2,0.0,65.1,57.6,0.0,97,78,59,29.15,29.01,0,0,0,0.00
2013-10-15,75.2,64.2,0.0,63.9,58.0,0.0,95,76,67,29.03,28.91,0,0,0,0.00
2013-10-16,68.0,57.3,0.0,65.0,55.5,0.0,99,85,85,28.93,28.83,0,0,0,0.00
2013-10-17,60.6,48.1,0.0,59.0,46.2,0.0,99,79,78,28.92,28.81,0,0,0,0.00
2013-10-18,64.9,52.5,0.0,53.9,46.3,0.0,96,74,56,28.99,28.88,0,0,0,0.00
2013-10-19,55.8,46.7,0.0,52.3,43.3,0.0,94,81,76,28.98,28.81,1,0,1,0.00
2013-10-20,63.6,46.9,0.0,46.7,35.8,0.0,100,61,36,29.02,28.92,0,0,0,0.00
2013-10-21,71.4,53.1,0.0,49.2,41.5,0.0,89,59,41,29.00,28.88,0,0,1,0.00
2013-10-22,59.2,46.9,0.0,51.6,42.1,0.0,97,72,66,28.96,28.78,6,0,6,0.00
2013-10-23,52.2,42.9,0.0,44.5,35.1,0.0,92,67,57,29.01,28.77,7,1,8,0.00
2013-10-24,53.1,42.3,0.0,43.4,35.9,0.0,90,71,65,29.24,29.01,4,0,5,0.00
2013-10-25,48.9,36.9,0.0,32.1,26.7,0.0,89,61,48,29.37,29.21,4,0,5,0.00
2013-10-26,60.1,44.8,0.0,44.2,32.6,0.0,88,57,40,29.21,28.99,10,0,10,0.00
2013-10-27,53.5,52.7,52.4,45.7,44.6,43.5,77,74,70,29.00,28.97,2,0,2,0.00
2013-11-19,48.2,37.7,0.0,31.7,25.9,0.0,73,52,46,29.17,29.06,10,1,255,0.00
2013-11-20,63.6,43.9,0.0,37.7,30.1,0.0,79,50,36,29.13,29.04,7,0,12,0.00
2013-11-21,66.6,49.9,0.0,54.0,43.0,0.0,90,67,61,29.19,29.07,6,0,10,0.00
2013-11-22,58.6,45.2,0.0,58.0,44.3,0.0,100,83,89,29.22,29.10,10,1,10,0.00
2013-11-23,43.2,28.6,0.0,42.1,22.7,0.0,96,58,46,29.39,29.19,13,2,15,0.00
2013-11-24,32.1,23.5,0.0,17.5,13.3,0.0,79,56,46,29.49,29.32,11,1,12,0.00
2013-11-25,31.9,16.7,0.0,20.4,9.4,0.0,64,38,58,29.32,29.23,3,0,4,0.00
2013-12-5,40.7,36.6,34.5,39.9,35.8,33.7,98,97,97,29.00,28.89,9,3,10,0.66
2013-12-6,34.5,24.0,0.0,33.9,23.6,0.0,98,73,97,29.22,28.92,7,1,10,0.53
2013-12-7,29.8,18.5,0.0,28.3,17.7,0.0,97,62,93,29.37,29.17,0,0,0,0.00
2013-12-8,43.1,29.8,0.0,42.8,29.3,0.0,99,78,94,29.18,28.94,5,0,6,0.29
2013-12-9,39.5,25.7,0.0,39.0,24.7,0.0,98,75,91,29.11,28.98,6,0,6,0.07
2013-12-10,37.7,26.8,0.0,28.7,22.7,0.0,95,72,65,29.27,28.99,6,0,6,0.03
2013-12-11,43.8,29.5,0.0,33.8,23.6,0.0,96,68,53,29.39,29.25,9,1,9,0.01
2013-12-12,36.6,24.8,0.0,21.5,14.3,0.0,92,55,42,29.47,29.26,5,0,7,0.00
2013-12-13,44.7,32.1,0.0,33.2,20.6,0.0,74,53,42,29.26,28.92,7,0,9,0.00
2013-12-14,47.8,32.1,0.0,47.3,30.4,0.0,100,73,68,28.92,28.70,9,2,13,0.12
2013-12-15,33.7,22.9,0.0,32.7,21.0,0.0,96,66,85,29.11,28.90,8,1,12,0.00
2013-12-16,27.9,18.1,0.0,26.2,17.1,0.0,95,62,93,29.09,29.05,4,0,4,0.00